• Join FlightAware (Why Join?)
  • Login
  • US Flag 
01:49PM EDT


 

Airport Tracker/Info


-or-


 

Live Flight TrackerFlight Track Log ✈ N3H ✈ 20-Oct-2013 ✈ KAPF - KFXE

Flight Track Log - Related Links

Times and Time Zones

All times are in EDT time to prevent confusion due to time zone crossing. See the N3H flight status page for this flight to view local times or setup timezone preferences in your user account.

Time Position Orientation Groundspeed Altitude Reporting Facility
EDT Latitude Longitude Course Direction KTS MPH feet Rate Location/Type
10:58PM 26.1717 -81.6275 90° East 231 266 6,800  Level Miami Center
10:59PM 26.1706 -81.5394 91° East 264 304 9,900 2,040 Climbing Miami Center
11:00PM 26.1608 -81.4489 97° East 309 356 10,900 480 Climbing Miami Center
11:01PM 26.1456 -81.3325 98° East 362 417 10,900 -480 Level Miami Center
11:02PM 26.1652 -81.3782 119° Southeast  Level Estimated
11:02PM 26.1325 -81.2164 97° East 376 433 10,000  Level Miami Center
11:03PM 26.1228 -81.1167 96° East 351 404 9,200 -900 Descending Miami Center
11:03PM 26.1211 -81.1025 97° East 305 351 9,100 -900 Descending Miami Center
11:04PM 26.1092 -81.0142 99° East 320 368 8,300 -900 Descending Miami Center
11:04PM 26.1006 -80.9447 98° East 303 349 7,600 -1,020 Descending Miami Center
11:05PM 26.1011 -80.9214 88° East 303 349 7,300 -1,380 Descending Miami Center
11:05PM 26.0947 -80.8542 96° East 295 339 6,300 -1,320 Descending Miami Center
11:06PM 26.1017 -80.8314 71° East 298 343 6,000 -1,320 Descending Miami Center
11:07PM 26.1161 -80.7578 78° East 279 321 4,800 -1,320 Descending Miami Center
11:07PM 26.1206 -80.7464 67° East 283 326 4,700 -1,260 Descending Miami Center
11:08PM 26.1331 -80.6728 79° East 277 319 3,600 -1,200 Descending Miami Center
11:08PM 26.1394 -80.6636 52° Northeast 283 326 3,500 -1,080 Descending Miami Center
11:09PM 26.1539 -80.5925 77° East 271 312 2,500 -1,020 Descending Miami Center
11:09PM 26.1583 -80.5833 62° Northeast 276 318 2,500 -420 Level Miami Center
11:10PM 26.1686 -80.5072 81° East 259 298 2,100 -240 Descending Miami Center
11:11PM 26.1703 -80.4333 89° East 251 289 2,100 60 Level Miami Center
11:11PM 26.1728 -80.4242 73° East 263 303 2,200  Climbing Miami Center
11:12PM 26.1761 -80.3708 86° East 217 250 2,100  Descending Miami Center
11:12PM 26.1786 -80.3547 80° East 242 278 2,200 -120 Climbing Miami Center
11:13PM 26.1839 -80.3017 84° East 178 205 2,000 -600 Descending Miami Center
11:14PM 26.1872 -80.2508 86° East 170 196 1,100 -900 Descending Miami Center
11:15PM 26.1944 -80.2047 80° East 138 159 300 -840 Descending Miami Center
11:17PM 26.1833 -80.1667 336° Northwest  Level FlightAware Approximate